Location: Boda
(47.1872°N, 9.5454°E)
Time: 18:13:14
(UTC+00:00)

Cosmos 1954 Rocket - Pass Details

Date: 14 May 2021
Orbit: 751 x 782 km, 74.0° (Epoch: 15 June)

Event Time Altitude Azimuth Distance (km) Brightness Sun altitude
Rises 02:04:17 0° 337° (NNW) 3,249 7.6 -14.3°
Reaches altitude 10° 02:06:40 10° 338° (NNW) 2,323 6.9 -14.1°
Maximum altitude 02:11:57 87° 68° (ENE) 783 4.0 -13.5°
Drops below altitude 10° 02:17:15 10° 158° (SSE) 2,324 6.3 -12.9°
Sets 02:19:38 0° 159° (SSE) 3,250 7.0 -12.6°
